Spokane, WA
on Friday, January 4, 2013

Friday
Previous Day Next Day
Daily Summary
 ActualAverageRecord
Temperature
Mean Temperature °F 28°F  
Max Temperature 27°F 33°F 55°F (1893)
Min Temperature 16°F 23°F -21°F (1899)
Degree Days
Heating Degree Days 43 37  
Month to date heating degree days 188 150  
Since 1 July heating degree days 2613 2984  
Cooling Degree Days 0 0  
Month to date cooling degree days 0 0  
Year to date cooling degree days 0 0  
Moisture
Dew Point 20°F   
Average Humidity 91    
Maximum Humidity 100    
Minimum Humidity 81    
Precipitation
Precipitation 0.00 in 0.06 in 1.44 in (1884)
Month to date precipitation T 0.26  
Year to date precipitation T 0.26  
Snow
Snow 0.00 in 0.50 in 3.80 in (1976)
Month to date snowfall T 1.9  
Since 1 July snowfall 24.0 24.0  
Snow Depth 4.00 in   
Wind
Wind Speed 3 mph   
Max Wind Speed 9 mph   
Max Gust Speed 10 mph   
Visibility 9 miles   
Events     

Key: T is trace of precipitation, MM is missing value
Source: NWS Daily Summary
Time(PST)TemperatureDew PointHumidity Pressure Visibility Wind DirectionWind SpeedGust SpeedPrecipitationEvents Conditions
12:53 AM 17.1°F 15.1°F 92% 30.41 in 10.0 miles SSE 4.6 mph - N/A   Overcast
1:53 AM 18.0°F 15.1°F 88% 30.41 in 9.0 miles Calm Calm - N/A   Overcast
2:53 AM 19.0°F 16.0°F 88% 30.40 in 10.0 miles Calm Calm - N/A   Overcast
3:53 AM 19.9°F 17.1°F 89% 30.41 in 10.0 miles Calm Calm - N/A   Overcast
4:53 AM 21.0°F 18.0°F 88% 30.41 in 10.0 miles Calm Calm - N/A   Overcast
5:53 AM 19.9°F 19.0°F 96% 30.41 in 7.0 miles Calm Calm - N/A   Overcast
6:53 AM 21.0°F 19.0°F 92% 30.42 in 7.0 miles Calm Calm - N/A   Overcast
7:25 AM 21.2°F 19.4°F 93% 30.30 in 9.0 miles Calm Calm - N/A   Overcast
7:53 AM 21.0°F 19.0°F 92% 30.43 in 9.0 miles Calm Calm - N/A   Overcast
8:53 AM 21.9°F 19.0°F 89% 30.43 in 8.0 miles Calm Calm - N/A   Overcast
9:53 AM 21.9°F 19.9°F 92% 30.45 in 8.0 miles Calm Calm - N/A   Overcast
10:53 AM 24.1°F 19.9°F 84% 30.45 in 8.0 miles NNE 3.5 mph - N/A   Overcast
11:53 AM 24.1°F 19.9°F 84% 30.44 in 10.0 miles Calm Calm - N/A   Overcast
12:53 PM 26.1°F 21.0°F 81% 30.41 in 10.0 miles Calm Calm - N/A   Overcast
1:53 PM 27.0°F 21.0°F 78% 30.41 in 10.0 miles Calm Calm - N/A   Overcast
2:53 PM 27.0°F 21.9°F 81% 30.42 in 10.0 miles North 3.5 mph - N/A   Overcast
3:53 PM 26.1°F 21.9°F 84% 30.42 in 10.0 miles NE 4.6 mph - N/A   Overcast
4:53 PM 26.1°F 21.0°F 81% 30.42 in 10.0 miles NE 4.6 mph - N/A   Overcast
5:53 PM 26.1°F 21.0°F 81% 30.42 in 10.0 miles NNE 3.5 mph - N/A   Overcast
6:53 PM 25.0°F 21.0°F 85% 30.41 in 10.0 miles NNE 4.6 mph - N/A   Overcast
7:53 PM 25.0°F 21.0°F 85% 30.42 in 10.0 miles NNE 3.5 mph - N/A   Overcast
8:35 PM 26.6°F 21.2°F 80% 30.32 in 10.0 miles NNE 5.8 mph - N/A   Overcast
8:53 PM 26.1°F 21.9°F 84% 30.42 in 10.0 miles NNE 6.9 mph - N/A   Overcast
9:53 PM 26.1°F 23.0°F 88% 30.43 in 10.0 miles NE 6.9 mph - N/A   Overcast
10:53 PM 26.1°F 23.0°F 88% 30.43 in 10.0 miles NNE 5.8 mph - N/A   Overcast
11:53 PM 26.1°F 23.0°F 88% 30.41 in 10.0 miles NE 8.1 mph - N/A   Overcast
Moon Phase
Jan. 04 Jan. 04 Jan. 11 Jan. 18 Jan. 26
Sunrise:07:38 AM (PST) Moon Rise:No Moon Rise/
Sunset:04:12 PM (PST) Moon Set:10:49 AM (PST)1/4

Copyright © 2014 The Weather Underground, Inc.